Weather History for Fort Wayne, IN

Change the Weather History Date:

Monday, April 22, 2013

  Actual Average Record
Temperature  
Mean Temperature 47 °F 52 °F  
Max Temperature 65 °F 64 °F 87 °F (1985)
Min Temperature 29 °F 41 °F 27 °F (1986)
Degree Days  
Heating Degree Days 18 13  
Month to date heating degree days 397 367  
Since 1 July heating degree days 5770 5791  
Cooling Degree Days 0 0  
Month to date cooling degree days 0 0  
Year to date cooling degree days 0 0  
Moisture  
Dew Point 33 °F    
Average Humidity 62    
Maximum Humidity 92    
Minimum Humidity 32    
Precipitation  
Precipitation 0.00 in 0.12 in 1.94 in (1977)
Month to date precipitation 5.31 2.64  
Year to date precipitation 12.94 9.65  
Snow  
Snow 0.00 in 0.00 in T in (1999)
Month to date snowfall T 0.9  
Since 1 July snowfall 38.5 33.4  
Snow Depth 0.00 in    
Sea Level Pressure  
Sea Level Pressure 30.29 in    
Wind  
Wind Speed 6 mph (East)    
Max Wind Speed 14 mph    
Max Gust Speed 18 mph    
Visibility 10 miles    
Events      
T = Trace of Precipitation, MM = Missing Value Source: NWS Daily Summary

Daily Weather History Graph

Daily Weather History Graph

Search for Another Location

Airport:

Trip Planner

Search our weather history database for the weather conditions in past years. The results will help you decide how hot, cold, wet, or windy it might be!

Date:

Astronomy

Apr. 22, 2013 Rise Set
Actual Time 6:50 AM EDT 8:28 PM EDT
Civil Twilight 6:21 AM EDT 8:57 PM EDT
Nautical Twilight 5:46 AM EDT 9:32 PM EDT
Astronomical Twilight 5:09 AM EDT 10:10 PM EDT
Moon 5:15 PM EDT (4/22) 4:46 AM EDT (4/22)
Length of Visible Light 14h 35m
Length of Day
13h 37m
Waxing Gibbous, 87% of the Moon is Illuminated
Apr 22
Waxing Gibbous
Apr 25
Full
May 2
Last Quarter
May 9
New
May 18
First Quarter

Hourly Weather History & Observations

Time (EDT) Temp. Windchill Dew Point Humidity Pressure Visibility Wind Dir Wind Speed Gust Speed Precip Events Conditions
12:54 AM 36.0 °F 30.3 °F 30.9 °F 82% 30.43 in 10.0 mi East 6.9 mph - N/A   Partly Cloudy
1:54 AM 33.1 °F 26.9 °F 30.0 °F 89% 30.43 in 10.0 mi ENE 6.9 mph - N/A   Partly Cloudy
2:54 AM 33.1 °F 27.7 °F 28.9 °F 85% 30.40 in 10.0 mi East 5.8 mph - N/A   Partly Cloudy
3:54 AM 30.9 °F 25.2 °F 28.0 °F 89% 30.39 in 10.0 mi ENE 5.8 mph - N/A   Partly Cloudy
4:54 AM 30.9 °F 25.2 °F 28.0 °F 89% 30.37 in 9.0 mi ENE 5.8 mph - N/A   Partly Cloudy
5:54 AM 30.0 °F 24.1 °F 27.0 °F 88% 30.37 in 10.0 mi NE 5.8 mph - N/A   Partly Cloudy
6:54 AM 30.0 °F 25.2 °F 27.0 °F 88% 30.37 in 8.0 mi ENE 4.6 mph - N/A   Scattered Clouds
7:54 AM 33.1 °F 28.7 °F 30.0 °F 89% 30.37 in 8.0 mi ENE 4.6 mph - N/A   Mostly Cloudy
8:54 AM 37.9 °F 33.5 °F 32.0 °F 79% 30.37 in 8.0 mi East 5.8 mph - N/A   Scattered Clouds
9:54 AM 45.0 °F 41.8 °F 34.0 °F 65% 30.36 in 10.0 mi ESE 5.8 mph - N/A   Scattered Clouds
10:54 AM 50.0 °F - 35.1 °F 57% 30.35 in 10.0 mi Variable 4.6 mph - N/A   Scattered Clouds
11:54 AM 55.0 °F - 36.0 °F 49% 30.35 in 10.0 mi ESE 5.8 mph - N/A   Scattered Clouds
12:54 PM 57.9 °F - 33.1 °F 39% 30.32 in 10.0 mi ESE 4.6 mph - N/A   Partly Cloudy
1:54 PM 60.1 °F - 30.0 °F 32% 30.29 in 10.0 mi East 9.2 mph 16.1 mph N/A   Partly Cloudy
2:54 PM 62.1 °F - 34.0 °F 35% 30.27 in 10.0 mi SE 5.8 mph 18.4 mph N/A   Partly Cloudy
3:54 PM 63.0 °F - 32.0 °F 31% 30.25 in 10.0 mi Calm Calm - N/A   Partly Cloudy
4:54 PM 64.9 °F - 35.1 °F 33% 30.21 in 10.0 mi SE 9.2 mph - N/A   Partly Cloudy
5:54 PM 64.0 °F - 36.0 °F 35% 30.19 in 10.0 mi SE 12.7 mph - N/A   Partly Cloudy
6:54 PM 64.0 °F - 36.0 °F 35% 30.17 in 10.0 mi SE 8.1 mph - N/A   Partly Cloudy
7:54 PM 61.0 °F - 37.0 °F 41% 30.15 in 10.0 mi ESE 8.1 mph - N/A   Partly Cloudy
8:54 PM 55.9 °F - 37.0 °F 49% 30.16 in 10.0 mi ESE 4.6 mph - N/A   Partly Cloudy
9:54 PM 54.0 °F - 37.9 °F 55% 30.16 in 10.0 mi East 4.6 mph - N/A   Clear
10:54 PM 50.0 °F - 37.9 °F 63% 30.16 in 10.0 mi East 5.8 mph - N/A   Partly Cloudy
11:54 PM 48.0 °F - 39.0 °F 71% 30.15 in 10.0 mi East 8.1 mph - N/A   Partly Cloudy